STAR ONE D2

Last updated on Tue Jul 08 2025 00:02:48 GMT+0000 (Coordinated Universal Time)

1 49055U 21069A 25187.13058236 -.00000248 00000+0 00000+0 0 9995 2 49055 0.0148 19.5206 0002128 112.7217 129.0380 1.00268233 14435
UTC large
Height (km)
Speed (km/s)
/
Latitude / Longitude
Inclination (degrees)
Orbital Period (minutes)
Azimuth
Elevation
Range (km)
Doppler Factor

Next 0 passes for location: London (51.5072 / 0.1276)

Sorry there are no passes over London.